Find Starlink 5697

NORAD ID: 55589 Int'l Des: 2023-020 Owner: SPXS Country: US Constellation: starlink operational
LEOCIRCULAR

現在のビュー

3D地球を読み込み中...

About Starlink 5697

Starlink 5697 (NORAD 55589) is a starlink constellation satellite (v1.5) launched Feb 12, 2023 by SPXS of US. It operates in LEO, CIRCULAR orbit with a mass of 305.00 kg.

次回通過

Passes for default location (London). Set your location on the main map for personalized predictions.

高度履歴

Loading altitude history...

軌道要素

1 55589U 23020W 26255.11284937 .00000097 00000-0 13063-4 0 9997
2 55589 43.0053 32.3940 0001886 279.6616 80.4022 15.27578044197422
Epoch: Sep 12, 2026 • Age: 18 hours

現在のステータス

高度 485.2 km
遠地点 / 近地点 N/A
速度 7.63 km/s
衛星直下点 32.27°N, 133.95°W
打ち上げ日 Feb 12, 2023
運用期間 3.5 years
タイプ internet

技術仕様

分類 Payload
質量 305.00 kg
乾燥質量 290.00 kg
総質量 305.00 kg
長さ 0.20 m
直径 2.80 m
スパン 9.00 m
形状 Box + pan
製造者 SPXS
バスタイプ Starlink
フェーズステータス In Orbit
所有者/国 SPXS/US

Most Searched